Location: Clanezzo
(45.7500°N, 9.6000°E)
Time: 03:04:48
(UTC+00:00)

Cosmos 1743 - Pass Details

Date: 12 May 2021
Orbit: 510 x 525 km, 82.6° (Epoch: 18 June)

Event Time Altitude Azimuth Distance (km) Brightness Sun altitude
Rises 20:54:09 0° 1° (N) 2,653 7.2 -18.1°
Reaches altitude 10° 20:56:33 10° 14° (NNE) 1,762 5.9 -18.3°
Maximum altitude 20:59:52 27° 74° (ENE) 1,031 4.0 -18.7°
Enters shadow 21:00:13 26° 83° (E) 1,042 4.0 -18.7°
